Location: Ab? ar R?sh Ba?r?
(24.1861°N, 32.8847°E)
Time: 05:37:38
(UTC+00:00)

CZ-4B R/B - Pass Details

Date: 27 May 2022
Orbit: 809 x 881 km, 99.1° (Epoch: 01 July)

Event Time Altitude Azimuth Distance (km) Brightness Sun altitude
Rises 17:10:14 0° 186° (S) 3,318 6.1 -9.0°
Reaches altitude 10° 17:12:43 10° 194° (SSW) 2,394 5.4 -9.5°
Maximum altitude 17:17:33 36° 260° (W) 1,271 4.7 -10.5°
Drops below altitude 10° 17:22:28 10° 327° (NNW) 2,435 6.7 -11.5°
Sets 17:25:02 0° 335° (NNW) 3,382 7.3 -12.0°
